Lexington Weather

Lexington, Massachusetts, USA

75°F
9/22/2021 1:30pm 
  • Lexington Conditions: Overcast
  • Temperature: 74.7°F / 23.7°CColder 0.9°F than last hour.
  • Dew Point: 68.0°FDecreased 0.9°Fsince last hour.
  • Relative Humidity: 80
  • Wind: Wind from SW SW 5 mph, 10-min avg: 4 mph, gust: 15 mph
  • Barometer: 30.10 inFalling 0.02  inHg/hr Falling Slowly
  • Visibility: 10 miles
  • Rain Today: 0.00 in
  •   

Regional Weather Roundup
for Boston / Norton, MA

        
000
ASUS41 KBOX 180204
RWRBOX

REGIONAL WEATHER ROUNDUP
NATIONAL WEATHER SERVICE BOSTON/NORTON MA
1000 PM EDT FRI SEP 17 2021

NOTE:  "FAIR" INDICATES FEW OR NO CLOUDS BELOW 12,000 FEET WITH NO 
SIGNIFICANT WEATHER AND/OR OBSTRUCTIONS TO VISIBILITY.

MAZALL-180300-
EASTERN MASSACHUSETTS
  
CITY           SKY/WX    TMP DP  RH WIND       PRES   REMARKS
BOSTON         DRZL/FOG  66  63  90 N6        30.20F VSB 1/2          
BEVERLY        FOG       64  63  96 N5        30.19F VSB 3/4          
LAWRENCE       CLOUDY    63  63 100 NE5       30.23F FOG              
BEDFORD        CLOUDY    63  63 100 E5        30.20S FOG              
BLUE HILL      NOT AVBL                                               
NORWOOD        FOG       65  63  93 CALM      30.19F VSB 1            
MARSHFIELD     FOG       66  66 100 NE5       30.18F VSB 1/4          
PLYMOUTH       FOG       66  66 100 N7        30.18F VSB 1/2          
TAUNTON        CLOUDY    64  64 100 N5        30.18S FOG              
NEW BEDFORD    FOG       67  67 100 N3        30.16F VSB 1            
$$

MAZALL-180300-
CAPE COD AND THE ISLANDS
  
CITY           SKY/WX    TMP DP  RH WIND       PRES   REMARKS
FALMOUTH       NOT AVBL                                               
HYANNIS        CLOUDY    69  69 100 NE3       30.15F FOG              
CHATHAM        FOG       68  67  96 NE6       30.17F VSB 1/2          
PROVINCETOWN   LGT RAIN  66  66 100 E6        30.18F VSB 1/2          
NANTUCKET      CLEAR     71  67  87 E8        30.13F                  
MARTHAS VNYRD  CLOUDY    71  70  96 NE13      30.15F                  
$$
 
MAZALL-180300-
CENTRAL AND WESTERN MASSACHUSETTS
  
CITY           SKY/WX    TMP DP  RH WIND       PRES   REMARKS
WORCESTER      FOG       63  63 100 NE5       30.22F VSB 1/4          
FITCHBURG      CLOUDY    65  63  93 NW5       30.22F                  
ORANGE         CLOUDY    66  63  90 N3        30.22F                  
SPRINGFIELD    CLOUDY    65  65  99 CALM      30.19S                  
WESTFIELD      CLOUDY    68  66  93 CALM      30.20S                  
NORTH ADAMS    MOCLDY    69  64  84 VRB5      30.19F                  
PITTSFIELD     CLOUDY    66  63  90 VRB3      30.20F                  
$$
 
RIZALL-180300-
RHODE ISLAND
  
CITY           SKY/WX    TMP DP  RH WIND       PRES   REMARKS
PROVIDENCE     CLOUDY    65  64  97 NE9       30.19S                  
NEWPORT        CLOUDY    65  65 100 N8        30.17F FOG              
BLOCK ISLAND   CLOUDY    66  65  96 NE10      30.16F                  
SMITHFIELD     LGT RAIN  64  64 100 NE8       30.20F VSB 1/2          
WESTERLY       CLOUDY    65  65 100 N5        30.17S                  
$$
 
CTZALL-180300-
CONNECTICUT
  
CITY           SKY/WX    TMP DP  RH WIND       PRES   REMARKS
BRADLEY INTL   CLOUDY    67  65  93 N5        30.20S                  
HARTFORD       CLOUDY    70  64  81 N5        30.18F                  
BRIDGEPORT     MOCLDY    71  67  87 N12       30.15F                  
DANBURY        CLOUDY    71  66  84 E7        30.19F                  
GROTON         CLOUDY    69  65  86 N9        30.16S                  
NEW HAVEN      MOCLDY    71  69  93 NE7       30.16F                  
CHESTER        CLOUDY    68  68 100 N6        30.18F                  
MERIDEN        CLOUDY    70  65  84 NE6       30.18S                  
WILLIMANTIC    CLOUDY    66  64  93 NE5       30.20S                  
OXFORD         CLOUDY    67  66  97 NE8       30.20S                  
$$

MEZ002-015-021-024-NHZ003-005-008-011-012-014-VTZ005-008-180300-
NORTHERN NEW ENGLAND
  
CITY           SKY/WX    TMP DP  RH WIND       PRES   REMARKS
PORTLAND ME    MOCLDY    62  60  93 SE3       30.21F                  
BANGOR ME      CLOUDY    64  59  83 CALM      30.21F                  
CONCORD NH     CLOUDY    65  63  93 CALM      30.21F                  
MANCHESTER NH  CLOUDY    66  60  81 CALM      30.20F                  
NASHUA NH      CLOUDY    65  65 100 CALM      30.22F                  
PORTSMOUTH NH  CLOUDY    64  60  88 CALM      30.22S                  
JAFFREY NH     CLOUDY    64  64 100 CALM      30.23F FOG              
KEENE NH       CLOUDY    66  64  93 CALM      30.22S                  
BURLINGTON VT  CLEAR     69  64  84 SE6       30.13F                  
MT. WASHINGTON FOG       50  50 100 SW23G30     N/A  VSB 1/16         
$$

NYZ052-076-180300-
EASTERN NEW YORK
  
CITY           SKY/WX    TMP DP  RH WIND       PRES   REMARKS
ALBANY         CLEAR     65  65 100 CALM      30.16F                  
NEW YORK CITY  MOCLDY    74  68  81 NE9       30.14S                  
$$
 
ANZALL-180300-
MARINE OBSERVATIONS
  
STATION/POSITION TIME  TEMP    WIND        PRES    VSBY  WAVE
                       AIR SEA DIR/SP/G                  HT/PER
                 (UTC) (F)     (DEG/KT/KT) (MB)    (MI)  (FT/S)
BOSTON BUOY      0140      67   40/  6/  8 1022.5F
BUZZARDS BAY     0100           30/ 16/ 17 1022.3R
NANTUCKET SOUND  0150   70 72   70/ 12/ 14 1020.9F         2/ 3
MASS BAY-STELLWA 0104   65      50/  8/ 10 1022.2F  1 7/8  2/ 4
ISLE OF SHOALS   0100   63      30/  8/ 10 1022.6F
S OF BLOCK IS    0156      71                N/A           5/ 8
$$

......................KEY.........................
  SKY/WX - SKY CONDITION/PRESENT WEATHER
  TMP    - TEMPERATURE IN FAHRENHEIT
  DWPT   - DEWPOINT IN FAHRENHEIT
  RH     - RELATIVE HUMIDITY IN PERCENT
  WIND   - DIRECTION AND SPEED IN MPH
  PRES   - MEAN SEA LEVEL PRESSURE IN INCHES OF HG
  WCI    - WIND CHILL INDEX
  VSB    - VISIBILITY IN MILES
  HX     - HEAT INDEX
  TC     - TEMPERATURE IN CELSIUS
  VRB    - VARIABLE WIND DIRECTION
  N/A    - NOT AVAILABLE
  
      

Other recent Regional Weather Roundups

Wed Sep 22, 1:04pm

Wed Sep 22, 12:05pm

Wed Sep 22, 11:04am

Wed Sep 22, 10:04am

Wed Sep 22, 9:04am

Wed Sep 22, 8:04am

Wed Sep 22, 7:04am

Wed Sep 22, 6:04am

Wed Sep 22, 5:04am

Wed Sep 22, 4:04am

Wed Sep 22, 3:04am

Wed Sep 22, 2:04am

Wed Sep 22, 1:04am

Wed Sep 22, 12:04am

Tue Sep 21, 11:04pm

Tue Sep 21, 10:04pm

Tue Sep 21, 9:04pm

Tue Sep 21, 8:04pm

Tue Sep 21, 7:04pm

Tue Sep 21, 6:04pm

Tue Sep 21, 5:04pm

Tue Sep 21, 4:04pm

Tue Sep 21, 3:04pm

Tue Sep 21, 2:04pm

Tue Sep 21, 1:04pm

Tue Sep 21, 12:04pm

Tue Sep 21, 11:04am

Tue Sep 21, 10:04am

Tue Sep 21, 9:04am

Tue Sep 21, 8:04am

Tue Sep 21, 7:04am

Tue Sep 21, 6:04am

Tue Sep 21, 5:04am

Tue Sep 21, 4:04am

Tue Sep 21, 3:04am

Tue Sep 21, 2:04am

Tue Sep 21, 1:04am

Tue Sep 21, 12:04am

Mon Sep 20, 11:04pm

Mon Sep 20, 10:04pm

Mon Sep 20, 9:04pm

Mon Sep 20, 8:04pm

Mon Sep 20, 7:04pm

Mon Sep 20, 6:04pm

Mon Sep 20, 5:04pm

Mon Sep 20, 4:04pm

Mon Sep 20, 3:04pm

Mon Sep 20, 2:04pm

Mon Sep 20, 1:04pm

Mon Sep 20, 12:04pm

Mon Sep 20, 11:04am

Mon Sep 20, 10:04am

Mon Sep 20, 9:04am

Mon Sep 20, 7:04am

Mon Sep 20, 6:04am

Mon Sep 20, 5:04am

Mon Sep 20, 4:04am

Mon Sep 20, 3:04am

Mon Sep 20, 2:04am

Mon Sep 20, 1:04am

Mon Sep 20, 12:04am

Sun Sep 19, 11:04pm

Sun Sep 19, 10:04pm

Sun Sep 19, 9:04pm

Sun Sep 19, 8:04pm

Sun Sep 19, 7:04pm

Sun Sep 19, 6:04pm

Sun Sep 19, 5:04pm

Sun Sep 19, 4:04pm

Sun Sep 19, 3:04pm

Sun Sep 19, 2:05pm

Sun Sep 19, 1:04pm

Sun Sep 19, 12:04pm

Sun Sep 19, 11:04am

Sun Sep 19, 10:05am

Sun Sep 19, 9:04am

Sun Sep 19, 8:04am

Sun Sep 19, 7:04am

Sun Sep 19, 6:04am

Sun Sep 19, 5:04am

Sun Sep 19, 4:04am

Sun Sep 19, 3:04am

Sun Sep 19, 2:04am

Sun Sep 19, 1:04am

Sun Sep 19, 12:04am

Sat Sep 18, 11:05pm

Sat Sep 18, 10:04pm

Sat Sep 18, 9:04pm

Sat Sep 18, 8:04pm

Sat Sep 18, 7:04pm

Sat Sep 18, 6:04pm

Sat Sep 18, 5:04pm

Sat Sep 18, 4:04pm

Sat Sep 18, 3:04pm

Sat Sep 18, 2:04pm

Sat Sep 18, 1:04pm

Sat Sep 18, 12:04pm

Sat Sep 18, 11:04am

Sat Sep 18, 10:04am

Sat Sep 18, 9:04am

Sat Sep 18, 8:04am

Sat Sep 18, 7:04am

Sat Sep 18, 6:04am

Sat Sep 18, 5:04am

Sat Sep 18, 4:04am

Sat Sep 18, 3:04am

Sat Sep 18, 2:04am

Sat Sep 18, 1:04am

Sat Sep 18, 12:04am

Fri Sep 17, 11:04pm

Fri Sep 17, 9:04pm

Fri Sep 17, 8:04pm

Fri Sep 17, 7:04pm

Fri Sep 17, 6:04pm

Fri Sep 17, 5:04pm

Fri Sep 17, 4:04pm

Fri Sep 17, 3:04pm

Fri Sep 17, 2:04pm

Fri Sep 17, 1:04pm

Fri Sep 17, 12:05pm

Fri Sep 17, 11:04am

Fri Sep 17, 10:04am

Fri Sep 17, 9:04am

Fri Sep 17, 8:04am

Fri Sep 17, 7:04am

Fri Sep 17, 6:04am

Fri Sep 17, 5:04am

Fri Sep 17, 4:04am

Fri Sep 17, 3:04am

Fri Sep 17, 2:04am

Fri Sep 17, 1:04am

Fri Sep 17, 12:04am

Thu Sep 16, 11:04pm

Thu Sep 16, 10:04pm

Thu Sep 16, 9:04pm

Thu Sep 16, 8:04pm

Thu Sep 16, 7:04pm

Thu Sep 16, 6:04pm

Thu Sep 16, 5:04pm

Thu Sep 16, 4:04pm

Thu Sep 16, 3:04pm

Thu Sep 16, 2:04pm

Thu Sep 16, 1:05pm

Thu Sep 16, 12:04pm

Thu Sep 16, 11:05am

Thu Sep 16, 10:05am

Thu Sep 16, 9:04am

Thu Sep 16, 8:04am

Thu Sep 16, 7:04am

Thu Sep 16, 6:04am

Thu Sep 16, 5:04am

Thu Sep 16, 4:04am

Thu Sep 16, 3:04am

Thu Sep 16, 2:04am

Thu Sep 16, 1:04am

Thu Sep 16, 12:04am

Wed Sep 15, 11:04pm

Wed Sep 15, 10:04pm

Wed Sep 15, 9:04pm

Wed Sep 15, 8:04pm

Wed Sep 15, 7:04pm

Wed Sep 15, 6:04pm

Wed Sep 15, 5:05pm

Wed Sep 15, 4:04pm

Wed Sep 15, 3:04pm

Wed Sep 15, 2:04pm

Meta data:

ID: d1f31d90-c7d3-4f46-9db9-f3c4e654f3db
Link: https://api.weather.gov/products/d1f31d90-c7d3-4f46-9db9-f3c4e654f3db